Regional Weather Roundup
Issued by NWS Sioux Falls, SD

Home | Current Version | Previous Version | Text Only | Print | Product List | Glossary Off
Versions: 1 2 3 4 5 6 7 8 9 10 11 12 13 14 15 16 17 18 19 20 21 22 23 24 25 26 27 28 29 30 31 32 33 34 35 36 37 38 39 40 41 42 43 44 45 46 47 48 49 50

529
ASUS43 KFSD 061402
RWRFSD

WEATHER ROUNDUP FOR SE SOUTH DAKOTA/SW MINNESOTA/NW IOWA
NATIONAL WEATHER SERVICE SIOUX FALLS SD
800 AM CST TUE DEC 06 2016

NOTE: "FAIR" INDICATES FEW OR NO CLOUDS BELOW 12,000 FEET WITH NO
SIGNIFICANT WEATHER AND OR OBSTRUCTIONS TO VISIBILITY.


SDZ038>040-050-052>070-061500-
SOUTHEAST SOUTH DAKOTA

CITY           SKY/WX    TMP DP  RH WIND       PRES   REMARKS
CHAMBERLAIN    CLEAR     14   7  73 W18G29    29.94S WCI  -3
HURON          CLOUDY    14   7  73 W29G39    29.85S WCI  -7
MADISON        FLURRIES  14   9  79 W30G44    29.79S WCI  -7
MITCHELL       MOCLDY    16   8  71 W24G38    29.91R WCI  -2
SIOUX FALLS    FLURRIES  17  12  80 W18G33    29.84S WCI   1
WINNER         FAIR      14   5  67 W22G28    29.96R WCI  -4
YANKTON        CLEAR    N/A N/A N/A W25G38    29.92R
$$

MNZ071-072-080-081-089-090-097-098-061500-
SOUTHWEST MINNESOTA

CITY           SKY/WX    TMP DP  RH WIND       PRES   REMARKS
FAIRMONT       PTCLDY    18  11  74 W15G25    29.83R WCI   4
JACKSON        FLURRIES  18  10  73 W21G31    29.80F WCI   1
LUVERNE        PTCLDY    18   9  68 W22G33    29.83S WCI   0
MARSHALL       CLEAR     16   8  71 W30G38    29.74F WCI  -4
MONTEVIDEO     CLOUDY    19  10  68 W20G31    29.71F WCI   4
PIPESTONE      PTCLDY    16   9  73 W24G36    29.78S WCI  -3
REDWOOD FALLS  MOCLDY    18   8  65 W22       29.75S WCI   1
TRACY          FLURRIES  18  11  75 W20G25    29.76F WCI   1
WINDOM         FLURRIES  18  10  73 W24       29.77F WCI   0
WORTHINGTON    FLURRIES  16   9  74 W25G39    29.81R WCI  -3
$$

IAZ001>003-012>014-020>022-031-032-NEZ013-014-SDZ071-061500-
NORTHWEST IOWA

CITY           SKY/WX    TMP DP  RH WIND       PRES   REMARKS
CHEROKEE       CLEAR     17  12  80 W10       29.91F WCI   5
DENISON        CLEAR     19  12  73 W12       29.92F WCI   7
ESTHERVILLE    PTCLDY    17  11  77 W17G29    29.83R WCI   1
LE MARS        MOCLDY    19  12  73 W9G15     29.93S WCI   9
ORANGE CITY    CLEAR     18  12  79 W29       29.88R WCI  -2
SHELDON        FLURRIES  18  14  86 W22G31    29.85R WCI   0
SIOUX CITY     CLEAR     19  11  70 W7        29.95S WCI  10
SPENCER        CLOUDY    18  11  74 W21G30    29.86S WCI   1
STORM LAKE     CLEAR     18  10  73 W21G28    29.88F WCI   1
$$

ABBREVIATIONS USED IN REMARKS
   TC - TEMPERATURE IN CELSIUS
  WCI - WIND CHILL INDEX
   HX - HEAT INDEX
  VSB - VISIBILITY





USA.gov is the U.S. government's official web portal to all federal, state and local government web resources and services.